This is the latest recevied weather packets stored in our database for station/object SQ7IQO. If no packets are shown the sender has not sent any weather packets the latest 10 day(s).
| Time | Temp. | Humidity | Pressure | Rain* | Wind** | Luminosity | Snow |
|---|---|---|---|---|---|---|---|
| 1787748518 | 21.67° C | 56% | 1023.6 hPa | 0 mm | 0 m/s | - | - |
| 1787748458 | 22.78° C | 56% | 1023.7 hPa | 0 mm | 0 m/s | - | - |
| 1787748398 | 22.22° C | 57% | 1023.6 hPa | 0 mm | 0 m/s | - | - |
| 1787748338 | 22.22° C | 56% | 1023.6 hPa | 0 mm | 0.45 m/s, ° | - | - |
| 1787748278 | 22.78° C | 53% | 1023.6 hPa | 0 mm | 0.89 m/s, ° | - | - |
| 1787748218 | 23.89° C | 53% | 1023.6 hPa | 0 mm | 1.34 m/s, ° | - | - |
| 1787748158 | 24.44° C | 52% | 1023.6 hPa | 0 mm | 0.45 m/s, ° | - | - |
| 1787748098 | 24.44° C | 50% | 1023.6 hPa | 0 mm | 0 m/s | - | - |
| 1787748038 | 23.89° C | 52% | 1023.6 hPa | 0 mm | 0 m/s | - | - |
| 1787747978 | 23.33° C | 51% | 1023.6 hPa | 0 mm | 0 m/s | - | - |
| 1787747918 | 23.89° C | 48% | 1023.7 hPa | 0 mm | 0 m/s | - | - |
| 1787747858 | 24.44° C | 48% | 1023.6 hPa | 0 mm | 0.45 m/s, ° | - | - |
| 1787747798 | 24.44° C | 49% | 1023.6 hPa | 0 mm | 0 m/s | - | - |
| 1787747738 | 24.44° C | 50% | 1023.6 hPa | 0 mm | 0 m/s | - | - |
| 1787747678 | 23.89° C | 55% | 1023.7 hPa | 0 mm | 0 m/s | - | - |
| 1787747618 | 22.78° C | 56% | 1023.7 hPa | 0 mm | 0 m/s | - | - |
| 1787747558 | 21.67° C | 56% | 1023.7 hPa | 0 mm | 0 m/s | - | - |
| 1787747498 | 21.11° C | 56% | 1023.7 hPa | 0 mm | 0 m/s | - | - |
| 1787747438 | 21.11° C | 61% | 1023.7 hPa | 0 mm | 0 m/s | - | - |
| 1787747378 | 21.11° C | 56% | 1023.7 hPa | 0 mm | 0 m/s | - | - |
| 1787747318 | 21.67° C | 56% | 1023.7 hPa | 0 mm | 0.45 m/s, ° | - | - |
| 1787747258 | 22.22° C | 56% | 1023.7 hPa | 0 mm | 0 m/s | - | - |
| 1787747198 | 22.22° C | 57% | 1023.7 hPa | 0 mm | 0 m/s | - | - |
| 1787747138 | 22.22° C | 56% | 1023.7 hPa | 0 mm | 0 m/s | - | - |
| 1787747078 | 22.22° C | 55% | 1023.7 hPa | 0 mm | 0.45 m/s, ° | - | - |
* Rain latest hour (hover to see other rain measurements)
** Current wind speed in m/s (hover to see current wind gust speed)